星链-4417 (STARLINK-4417 )

导读 | 星芒AI

STARLINK-4417 是 SpaceX Starlink 卫星互联网项目中的一颗低轨卫星,属于“星链”计划的第四批发射任务之一。该卫星运行在约 550 公里的近地轨道,旨在为全球用户提供高速互联网服务。它采用先进的通信技术,具备自动避障功能,以减少与其他卫星或太空碎片的碰撞风险。STARLINK-4417 与数千颗同类卫星共同构建 Starlink 网络,支持农村和偏远地区的宽带接入,并在军事和应急通信中发挥潜在作用。

基本信息
目录编号:
53200
目录名称:
STARLINK-4417
国际标识:
2022-084M
轨道中心:
EARTH
卫星名称:
星链-4417
卫星全名:
星链-4417 (STARLINK-4417 )
卫星状态:
在轨 (已飞行1248 天)
发射日期:
2022-07-22 UTC
国别 :
美国 (US)
星等 :
--
轨道信息
数据来源 国际轨道数据
星历时间: 2025-12-21T06:13:26+0800
8小时前
查看轨道信息
半长轴: 6927.65km
偏心率: 0.0001132
轨道倾角: 97.604°
近地点辐角 101.534°
升交点赤经 53.531°
平近点角 258.601°
近地点: 548.728km
远地点: 550.298km
周期: 95.640分钟
每日圈数: 15.056494
详细信息
固有亮度:
5
最大亮度:
2.5
卫星平台:
Starlink v1.5
覆盖范围:
全球
运营商:
太空探索技术公司
运营商所在国:
美国
制造商(研发单位):
太空探索技术公司
制造商所在国:
美国
使用方式:
暂无
卫星简介
星链(Starlink)计划是由太空探索技术公司(SpaceX)提出的一个巨型低轨卫星互联网星座项目,计划在2019年至2024年间在太空搭建由约1.2万颗卫星组成的“星链”网络,其中1584颗将部署在地球上空550千米处的近地轨道,并从2020年开始工作。该卫星仍在工作。
2D轨道图
3D轨道图
轨道高度分析图
轨道倾角分析图
轨道综合分析图
查看轨道综合分析图